RYR39C LGAV-EPKK

Flight info

Callsign RYR39C
Flight time 2h 0m
Altitude 38000
Route KRO UT162 KOROS UN133 GIKAS DCT ATFIR DCT RUPUG DCT ETNOG DCT LENOV
Aircraft B738/M-SDE2E3FGHIRWXY/LB1

Departure

Time 2026-05-06 21:42
Airport Athens Eleftherios Venizelos International Airport (LGAV)

Arrival

Time 2026-05-06 23:43
Airport Kraków John Paul II International Airport (EPKK)
Time Latitude Longitude Altitude Speed Heading
2026-05-06 21:09 37.93173 23.94323 300 ft 0 kts 217°
2026-05-06 21:33 37.93177 23.94327 300 ft 4 kts 216°
2026-05-06 21:33 37.93200 23.94345 303 ft 4 kts 204°
2026-05-06 21:33 37.93225 23.94355 302 ft 4 kts 181°
2026-05-06 21:33 37.93247 23.94348 304 ft 3 kts 130°
2026-05-06 21:34 37.93249 23.94345 304 ft 1 kts 127°
2026-05-06 21:36 37.93247 23.94348 304 ft 2 kts 127°
2026-05-06 21:36 37.93236 23.94366 301 ft 6 kts 126°
2026-05-06 21:36 37.93206 23.94417 300 ft 9 kts 128°
2026-05-06 21:37 37.93156 23.94501 301 ft 15 kts 125°
2026-05-06 21:37 37.93148 23.94516 302 ft 0 kts 125°
2026-05-06 21:37 37.93134 23.94540 302 ft 7 kts 126°
2026-05-06 21:38 37.93114 23.94574 302 ft 7 kts 126°
2026-05-06 21:38 37.93085 23.94626 300 ft 8 kts 126°
2026-05-06 21:38 37.93033 23.94671 301 ft 10 kts 175°
2026-05-06 21:38 37.92965 23.94631 300 ft 12 kts 215°
2026-05-06 21:39 37.92895 23.94565 303 ft 12 kts 217°
2026-05-06 21:39 37.92827 23.94501 303 ft 12 kts 217°
2026-05-06 21:39 37.92738 23.94418 301 ft 12 kts 216°
2026-05-06 21:39 37.92685 23.94368 305 ft 16 kts 218°
2026-05-06 21:40 37.92590 23.94291 304 ft 16 kts 189°
2026-05-06 21:40 37.92537 23.94329 306 ft 0 kts 131°
2026-05-06 21:40 37.92535 23.94331 306 ft 3 kts 129°
2026-05-06 21:41 37.92518 23.94362 306 ft 6 kts 126°
2026-05-06 21:41 37.92505 23.94455 307 ft 14 kts 61°
2026-05-06 21:41 37.92580 23.94538 305 ft 14 kts 37°
2026-05-06 21:41 37.92660 23.94616 305 ft 18 kts 38°
2026-05-06 21:42 37.92957 23.94901 298 ft 94 kts 38°
2026-05-06 21:42 37.93683 23.95584 305 ft 161 kts 36°
2026-05-06 21:42 37.94653 23.96510 821 ft 186 kts 37°
2026-05-06 21:42 37.95726 23.97541 1715 ft 193 kts 36°
2026-05-06 21:43 37.96778 23.98463 2889 ft 177 kts 36°
2026-05-06 21:43 37.97775 23.99422 3548 ft 184 kts 37°
2026-05-06 21:43 37.98855 24.00491 3878 ft 211 kts 37°
2026-05-06 21:43 38.00078 24.01694 4091 ft 233 kts 37°
2026-05-06 21:44 38.01441 24.02947 4356 ft 249 kts 33°
2026-05-06 21:44 38.02921 24.04142 4865 ft 255 kts 31°
2026-05-06 21:44 38.04459 24.05355 5173 ft 272 kts 31°
2026-05-06 21:44 38.06090 24.06641 5788 ft 279 kts 31°
2026-05-06 21:45 38.07730 24.07940 6695 ft 277 kts 31°
2026-05-06 21:45 38.09358 24.09236 7505 ft 278 kts 31°
2026-05-06 21:45 38.11006 24.10551 8263 ft 281 kts 31°
2026-05-06 21:45 38.12667 24.11882 9036 ft 284 kts 31°
2026-05-06 21:46 38.14343 24.13227 9813 ft 287 kts 31°
2026-05-06 21:46 38.16042 24.14594 10447 ft 294 kts 31°
2026-05-06 21:46 38.17838 24.16037 10620 ft 317 kts 31°
2026-05-06 21:46 38.19735 24.17565 10879 ft 336 kts 31°
2026-05-06 21:47 38.21733 24.19177 11441 ft 343 kts 31°
2026-05-06 21:47 38.23755 24.20813 12141 ft 346 kts 31°
2026-05-06 21:47 38.25793 24.22462 12868 ft 349 kts 31°
2026-05-06 21:47 38.27856 24.24133 13589 ft 353 kts 31°
2026-05-06 21:48 38.29939 24.25821 14279 ft 357 kts 30°
2026-05-06 21:48 38.32043 24.27527 14973 ft 360 kts 30°
2026-05-06 21:48 38.34161 24.29246 15706 ft 362 kts 30°
2026-05-06 21:48 38.36294 24.30978 16413 ft 365 kts 30°
2026-05-06 21:49 38.38443 24.32724 17089 ft 368 kts 29°
2026-05-06 21:49 38.40585 24.34465 17760 ft 372 kts 29°
2026-05-06 21:49 38.42776 24.36248 18427 ft 375 kts 29°
2026-05-06 21:49 38.44984 24.38046 19008 ft 378 kts 29°
2026-05-06 21:50 38.47212 24.39861 19611 ft 381 kts 29°
2026-05-06 21:50 38.49450 24.41687 20223 ft 383 kts 28°
2026-05-06 21:50 38.51705 24.43526 20791 ft 386 kts 28°
2026-05-06 21:50 38.53979 24.45383 21334 ft 390 kts 28°
2026-05-06 21:51 38.56271 24.47257 21887 ft 393 kts 28°
2026-05-06 21:51 38.58581 24.49147 22432 ft 396 kts 28°
2026-05-06 21:51 38.60910 24.51053 22968 ft 399 kts 28°
2026-05-06 21:51 38.63224 24.52948 23481 ft 402 kts 28°
2026-05-06 21:52 38.65587 24.54886 23939 ft 405 kts 28°
2026-05-06 21:52 38.67966 24.56839 24396 ft 407 kts 28°
2026-05-06 21:52 38.70354 24.58801 24881 ft 408 kts 28°
2026-05-06 21:52 38.72750 24.60770 25335 ft 410 kts 28°
2026-05-06 21:53 38.75160 24.62753 25737 ft 413 kts 28°
2026-05-06 21:53 38.77584 24.64748 26152 ft 416 kts 28°
2026-05-06 21:53 38.80023 24.66758 26569 ft 418 kts 28°
2026-05-06 21:53 38.82473 24.68778 26975 ft 420 kts 28°
2026-05-06 21:54 38.84905 24.70785 27360 ft 422 kts 28°
2026-05-06 21:54 38.87383 24.72832 27746 ft 425 kts 28°
2026-05-06 21:54 38.89874 24.74892 28116 ft 427 kts 28°
2026-05-06 21:54 38.92379 24.76964 28487 ft 429 kts 28°
2026-05-06 21:55 38.94896 24.79050 28857 ft 432 kts 28°
2026-05-06 21:55 38.97428 24.81149 29220 ft 434 kts 28°
2026-05-06 21:55 38.99967 24.83255 29564 ft 436 kts 28°
2026-05-06 21:55 39.02522 24.85377 29901 ft 438 kts 28°
2026-05-06 21:56 39.05090 24.87508 30210 ft 440 kts 27°
2026-05-06 21:56 39.07798 24.89144 30417 ft 434 kts 10°
2026-05-06 21:56 39.10755 24.89608 30728 ft 426 kts 356°
2026-05-06 21:56 39.13669 24.89165 31143 ft 419 kts 343°
2026-05-06 21:57 39.16375 24.87848 31564 ft 414 kts 333°
2026-05-06 21:57 39.18966 24.86237 31952 ft 413 kts 332°
2026-05-06 21:57 39.21536 24.84585 32278 ft 413 kts 332°
2026-05-06 21:57 39.24104 24.82932 32634 ft 412 kts 332°
2026-05-06 21:58 39.26670 24.81297 33046 ft 410 kts 332°
2026-05-06 21:58 39.29193 24.79707 33442 ft 408 kts 333°
2026-05-06 21:58 39.31744 24.78109 33778 ft 408 kts 333°
2026-05-06 21:58 39.34298 24.76516 34089 ft 407 kts 333°
2026-05-06 21:59 39.36849 24.74925 34386 ft 407 kts 333°
2026-05-06 21:59 39.39394 24.73337 34641 ft 407 kts 333°
2026-05-06 21:59 39.41945 24.71743 34863 ft 407 kts 333°
2026-05-06 21:59 39.44497 24.70147 35116 ft 407 kts 333°
2026-05-06 22:00 39.47048 24.68551 35374 ft 407 kts 332°
2026-05-06 22:00 39.49597 24.66959 35649 ft 407 kts 333°
2026-05-06 22:00 39.52178 24.65574 35892 ft 408 kts 337°
2026-05-06 22:00 39.54851 24.64334 36122 ft 408 kts 338°
2026-05-06 22:01 39.57543 24.63137 36333 ft 409 kts 339°
2026-05-06 22:01 39.60236 24.61951 36558 ft 409 kts 339°
2026-05-06 22:01 39.62928 24.60757 36783 ft 409 kts 338°
2026-05-06 22:01 39.65618 24.59552 37001 ft 409 kts 338°
2026-05-06 22:02 39.68304 24.58338 37208 ft 409 kts 338°
2026-05-06 22:02 39.70995 24.57114 37383 ft 410 kts 338°
2026-05-06 22:02 39.73653 24.55899 37580 ft 410 kts 338°
2026-05-06 22:02 39.76347 24.54664 37791 ft 411 kts 338°
2026-05-06 22:03 39.79040 24.53428 37996 ft 410 kts 338°
2026-05-06 22:03 39.81736 24.52189 38062 ft 413 kts 338°
2026-05-06 22:03 39.87161 24.49692 38059 ft 413 kts 338°
2026-05-06 22:04 39.92550 24.47210 38078 ft 409 kts 338°
2026-05-06 22:04 39.97896 24.44743 38070 ft 406 kts 338°
2026-05-06 22:05 40.03174 24.42303 38073 ft 405 kts 338°
2026-05-06 22:05 40.08476 24.39847 38073 ft 404 kts 338°
2026-05-06 22:06 40.13785 24.37384 38071 ft 406 kts 338°
2026-05-06 22:06 40.19111 24.34910 38089 ft 407 kts 338°
2026-05-06 22:07 40.24430 24.32433 38088 ft 410 kts 338°
2026-05-06 22:07 40.29828 24.29916 38090 ft 413 kts 338°
2026-05-06 22:08 40.35269 24.27376 38075 ft 416 kts 338°
2026-05-06 22:08 40.40740 24.24816 38072 ft 419 kts 338°
2026-05-06 22:09 40.46200 24.22259 38075 ft 420 kts 338°
2026-05-06 22:09 40.51700 24.19678 38071 ft 420 kts 338°
2026-05-06 22:10 40.57190 24.17096 38069 ft 418 kts 338°
2026-05-06 22:10 40.62657 24.14522 38075 ft 416 kts 338°
2026-05-06 22:11 40.68063 24.11971 38072 ft 414 kts 338°
2026-05-06 22:11 40.73475 24.09413 38073 ft 412 kts 338°
2026-05-06 22:12 40.78869 24.06859 38080 ft 411 kts 338°
2026-05-06 22:12 40.84242 24.04311 38071 ft 410 kts 337°
2026-05-06 22:13 40.89562 24.01783 38088 ft 409 kts 338°
2026-05-06 22:13 40.94918 23.99233 38085 ft 410 kts 338°
2026-05-06 22:14 41.00283 23.96674 38078 ft 410 kts 338°
2026-05-06 22:14 41.05654 23.94109 38079 ft 411 kts 338°
2026-05-06 22:15 41.10991 23.91556 38091 ft 411 kts 338°
2026-05-06 22:15 41.16373 23.88976 38092 ft 412 kts 338°
2026-05-06 22:16 41.21768 23.86386 38093 ft 413 kts 338°
2026-05-06 22:16 41.27170 23.83787 38097 ft 413 kts 337°
2026-05-06 22:17 41.32580 23.81181 38102 ft 414 kts 338°
2026-05-06 22:17 41.37965 23.78582 38111 ft 415 kts 338°
2026-05-06 22:18 41.43526 23.76498 38121 ft 417 kts 346°
2026-05-06 22:18 41.49252 23.75102 38111 ft 418 kts 347°
2026-05-06 22:19 41.54978 23.73732 38115 ft 418 kts 346°
2026-05-06 22:19 41.60689 23.72322 38106 ft 417 kts 346°
2026-05-06 22:20 41.66341 23.70898 38113 ft 415 kts 346°
2026-05-06 22:20 41.72013 23.69459 38115 ft 414 kts 346°
2026-05-06 22:21 41.77672 23.68018 38117 ft 414 kts 346°
2026-05-06 22:21 41.83325 23.66577 38110 ft 413 kts 346°
2026-05-06 22:22 41.88926 23.65146 38118 ft 412 kts 346°
2026-05-06 22:22 41.94563 23.63704 38115 ft 413 kts 346°
2026-05-06 22:23 42.00209 23.62256 38112 ft 413 kts 346°
2026-05-06 22:23 42.05857 23.60807 38100 ft 413 kts 346°
2026-05-06 22:24 42.11500 23.59356 38100 ft 413 kts 346°
2026-05-06 22:24 42.17115 23.57909 38108 ft 414 kts 346°
2026-05-06 22:25 42.22784 23.56445 38091 ft 416 kts 346°
2026-05-06 22:25 42.28473 23.54974 38078 ft 417 kts 346°
2026-05-06 22:26 42.34170 23.53498 38080 ft 417 kts 346°
2026-05-06 22:26 42.39825 23.52031 38081 ft 416 kts 346°
2026-05-06 22:27 42.45512 23.50553 38068 ft 416 kts 346°
2026-05-06 22:27 42.51184 23.49075 38062 ft 415 kts 346°
2026-05-06 22:28 42.56808 23.47607 38068 ft 414 kts 346°
2026-05-06 22:28 42.62463 23.46129 38071 ft 414 kts 346°
2026-05-06 22:29 42.68114 23.44648 38053 ft 413 kts 346°
2026-05-06 22:29 42.73757 23.43168 38085 ft 413 kts 346°
2026-05-06 22:30 42.79400 23.41684 38077 ft 413 kts 346°
2026-05-06 22:30 42.85003 23.40208 38068 ft 413 kts 346°
2026-05-06 22:31 42.90651 23.38717 38052 ft 414 kts 346°
2026-05-06 22:31 42.96318 23.37218 38042 ft 415 kts 345°
2026-05-06 22:32 43.01990 23.35716 38042 ft 416 kts 345°
2026-05-06 22:32 43.07639 23.34217 38033 ft 416 kts 345°
2026-05-06 22:33 43.13327 23.32705 38026 ft 416 kts 345°
2026-05-06 22:33 43.19019 23.31189 38030 ft 417 kts 346°
2026-05-06 22:34 43.24733 23.29663 38018 ft 419 kts 346°
2026-05-06 22:34 43.30413 23.28145 38021 ft 419 kts 345°
2026-05-06 22:35 43.36133 23.26612 37998 ft 419 kts 345°
2026-05-06 22:35 43.41856 23.25076 38004 ft 419 kts 345°
2026-05-06 22:36 43.47579 23.23537 37998 ft 419 kts 345°
2026-05-06 22:36 43.53264 23.22005 37992 ft 419 kts 345°
2026-05-06 22:37 43.58990 23.20459 37986 ft 420 kts 345°
2026-05-06 22:37 43.64719 23.18910 37999 ft 419 kts 345°
2026-05-06 22:38 43.70446 23.17357 37982 ft 420 kts 345°
2026-05-06 22:38 43.76140 23.15811 37984 ft 420 kts 345°
2026-05-06 22:39 43.81878 23.14250 37984 ft 420 kts 345°
2026-05-06 22:39 43.87619 23.12684 37987 ft 421 kts 345°
2026-05-06 22:40 43.93367 23.11114 37988 ft 421 kts 345°
2026-05-06 22:40 43.99081 23.09551 38001 ft 422 kts 345°
2026-05-06 22:41 44.07724 23.07179 37988 ft 422 kts 345°
2026-05-06 22:42 44.13492 23.05593 37992 ft 423 kts 345°
2026-05-06 22:42 44.19261 23.04003 38006 ft 423 kts 345°
2026-05-06 22:43 44.24997 23.02419 38000 ft 423 kts 345°
2026-05-06 22:43 44.30775 23.00820 38006 ft 424 kts 345°
2026-05-06 22:44 44.36561 22.99216 38015 ft 424 kts 344°
2026-05-06 22:44 44.42353 22.97606 37995 ft 424 kts 344°
2026-05-06 22:45 44.48106 22.96005 38005 ft 424 kts 344°
2026-05-06 22:45 44.53892 22.94391 38007 ft 424 kts 344°
2026-05-06 22:46 44.59674 22.92775 38017 ft 423 kts 344°
2026-05-06 22:46 44.65451 22.91157 38016 ft 423 kts 344°
2026-05-06 22:47 44.71188 22.89547 38024 ft 423 kts 344°
2026-05-06 22:47 44.76965 22.87922 38036 ft 424 kts 344°
2026-05-06 22:48 44.82748 22.86292 38031 ft 424 kts 344°
2026-05-06 22:48 44.88540 22.84657 38034 ft 425 kts 345°
2026-05-06 22:49 44.94313 22.83023 38041 ft 427 kts 345°
2026-05-06 22:49 45.00148 22.81368 38056 ft 429 kts 345°
2026-05-06 22:50 45.06008 22.79703 38072 ft 430 kts 345°
2026-05-06 22:50 45.11901 22.78024 38056 ft 433 kts 345°
2026-05-06 22:51 45.17832 22.76332 38063 ft 436 kts 345°
2026-05-06 22:51 45.23754 22.74639 38047 ft 438 kts 345°
2026-05-06 22:52 45.29737 22.72925 38059 ft 439 kts 345°
2026-05-06 22:52 45.35743 22.71200 38029 ft 441 kts 345°
2026-05-06 22:53 45.41747 22.69473 38026 ft 440 kts 345°
2026-05-06 22:53 45.47699 22.67757 38034 ft 440 kts 345°
2026-05-06 22:54 45.53691 22.66026 38018 ft 439 kts 345°
2026-05-06 22:54 45.59671 22.64294 38029 ft 438 kts 345°
2026-05-06 22:55 45.65636 22.62562 38006 ft 437 kts 345°
2026-05-06 22:55 45.71552 22.60841 38000 ft 437 kts 345°
2026-05-06 22:56 45.77504 22.59105 38007 ft 436 kts 345°
2026-05-06 22:56 45.83455 22.57366 38005 ft 437 kts 345°
2026-05-06 22:57 45.89415 22.55621 38009 ft 437 kts 345°
2026-05-06 22:57 45.95347 22.53880 38009 ft 438 kts 345°
2026-05-06 22:58 46.01327 22.52121 38002 ft 439 kts 345°
2026-05-06 22:58 46.07322 22.50353 38000 ft 440 kts 345°
2026-05-06 22:59 46.13331 22.48578 37993 ft 441 kts 345°
2026-05-06 22:59 46.19351 22.46796 38013 ft 442 kts 345°
2026-05-06 23:00 46.25336 22.45020 38006 ft 443 kts 345°
2026-05-06 23:00 46.31375 22.43224 37998 ft 443 kts 345°
2026-05-06 23:01 46.37416 22.41424 37996 ft 443 kts 345°
2026-05-06 23:01 46.43460 22.39618 38002 ft 443 kts 345°
2026-05-06 23:02 46.49461 22.37821 37973 ft 443 kts 345°
2026-05-06 23:02 46.55486 22.36014 37978 ft 442 kts 345°
2026-05-06 23:03 46.61502 22.34204 37974 ft 441 kts 345°
2026-05-06 23:03 46.67505 22.32394 37985 ft 440 kts 345°
2026-05-06 23:04 46.73504 22.30581 37974 ft 440 kts 345°
2026-05-06 23:04 46.79466 22.28775 37976 ft 441 kts 345°
2026-05-06 23:05 46.85473 22.26952 37970 ft 441 kts 345°
2026-05-06 23:05 46.91483 22.25121 37965 ft 441 kts 344°
2026-05-06 23:06 46.97446 22.22996 37969 ft 441 kts 341°
2026-05-06 23:06 47.03383 22.20713 37955 ft 442 kts 341°
2026-05-06 23:07 47.09299 22.18461 37946 ft 443 kts 342°
2026-05-06 23:07 47.15273 22.16217 37955 ft 443 kts 342°
2026-05-06 23:08 47.21255 22.13976 37947 ft 444 kts 342°
2026-05-06 23:08 47.27200 22.11745 37943 ft 444 kts 342°
2026-05-06 23:09 47.33183 22.09492 37944 ft 444 kts 342°
2026-05-06 23:09 47.39172 22.07232 37947 ft 444 kts 342°
2026-05-06 23:10 47.45155 22.04968 37937 ft 444 kts 342°
2026-05-06 23:10 47.51089 22.02718 37935 ft 443 kts 342°
2026-05-06 23:11 47.57055 22.00450 37938 ft 442 kts 342°
2026-05-06 23:11 47.63007 21.98182 37939 ft 441 kts 342°
2026-05-06 23:12 47.68885 21.95629 37932 ft 438 kts 336°
2026-05-06 23:12 47.74539 21.92477 37932 ft 437 kts 335°
2026-05-06 23:13 47.80211 21.89228 37922 ft 437 kts 335°
2026-05-06 23:13 47.85888 21.86019 37935 ft 436 kts 335°
2026-05-06 23:14 47.91574 21.82833 37916 ft 437 kts 335°
2026-05-06 23:14 47.97234 21.79665 37912 ft 437 kts 335°
2026-05-06 23:15 48.02934 21.76468 37914 ft 438 kts 335°
2026-05-06 23:15 48.08646 21.73256 37912 ft 439 kts 335°
2026-05-06 23:16 48.14366 21.70032 37924 ft 440 kts 335°
2026-05-06 23:16 48.20059 21.66815 37919 ft 441 kts 335°
2026-05-06 23:17 48.25805 21.63560 37916 ft 441 kts 335°
2026-05-06 23:17 48.31551 21.60297 37921 ft 442 kts 335°
2026-05-06 23:18 48.37303 21.57023 37918 ft 442 kts 335°
2026-05-06 23:18 48.43017 21.53764 37920 ft 442 kts 335°
2026-05-06 23:19 48.48765 21.50476 37915 ft 442 kts 335°
2026-05-06 23:19 48.51642 21.48827 37680 ft 446 kts 335°
2026-05-06 23:19 48.54549 21.47158 37201 ft 446 kts 335°
2026-05-06 23:19 48.57437 21.45500 36649 ft 443 kts 335°
2026-05-06 23:20 48.60315 21.43846 36091 ft 442 kts 335°
2026-05-06 23:20 48.63192 21.42191 35497 ft 442 kts 335°
2026-05-06 23:20 48.66070 21.40531 34879 ft 443 kts 335°
2026-05-06 23:20 48.68914 21.38889 34264 ft 444 kts 335°
2026-05-06 23:21 48.71807 21.37216 33608 ft 446 kts 335°
2026-05-06 23:21 48.74707 21.35537 32872 ft 447 kts 335°
2026-05-06 23:21 48.77619 21.33849 32191 ft 448 kts 335°
2026-05-06 23:21 48.80522 21.32167 31717 ft 444 kts 335°
2026-05-06 23:22 48.83396 21.30500 31228 ft 441 kts 335°
2026-05-06 23:22 48.86251 21.28841 30742 ft 437 kts 335°
2026-05-06 23:22 48.89079 21.27195 30282 ft 434 kts 335°
2026-05-06 23:22 48.91855 21.25577 29789 ft 431 kts 335°
2026-05-06 23:23 48.94646 21.23948 29236 ft 428 kts 335°
2026-05-06 23:23 48.97412 21.22333 28759 ft 423 kts 335°
2026-05-06 23:23 49.00147 21.20733 28251 ft 420 kts 335°
2026-05-06 23:23 49.02861 21.19143 27765 ft 416 kts 335°
2026-05-06 23:24 49.05548 21.17567 27282 ft 412 kts 335°
2026-05-06 23:24 49.08217 21.16000 26820 ft 409 kts 335°
2026-05-06 23:24 49.10864 21.14443 26337 ft 407 kts 335°
2026-05-06 23:24 49.13501 21.12891 25868 ft 405 kts 335°
2026-05-06 23:25 49.16086 21.11367 25412 ft 403 kts 335°
2026-05-06 23:25 49.18691 21.09825 24928 ft 401 kts 334°
2026-05-06 23:25 49.21142 21.07863 24043 ft 398 kts 322°
2026-05-06 23:25 49.23415 21.05441 23093 ft 399 kts 321°
2026-05-06 23:26 49.25671 21.02992 22243 ft 395 kts 321°
2026-05-06 23:26 49.27891 21.00581 21541 ft 388 kts 321°
2026-05-06 23:26 49.30080 20.98216 20827 ft 382 kts 321°
2026-05-06 23:26 49.32238 20.95894 20096 ft 377 kts 321°
2026-05-06 23:27 49.34348 20.93631 19386 ft 374 kts 321°
2026-05-06 23:27 49.36472 20.91357 18666 ft 371 kts 321°
2026-05-06 23:27 49.38581 20.89100 17944 ft 368 kts 321°
2026-05-06 23:27 49.40667 20.86867 17198 ft 364 kts 321°
2026-05-06 23:28 49.42730 20.84659 16493 ft 359 kts 321°
2026-05-06 23:28 49.44767 20.82476 15825 ft 354 kts 321°
2026-05-06 23:28 49.46765 20.80333 15368 ft 349 kts 321°
2026-05-06 23:28 49.48750 20.78201 14944 ft 347 kts 321°
2026-05-06 23:29 49.50698 20.76106 14520 ft 346 kts 321°
2026-05-06 23:29 49.52665 20.73988 14094 ft 344 kts 321°
2026-05-06 23:29 49.54620 20.71881 13683 ft 342 kts 321°
2026-05-06 23:29 49.56566 20.69782 13213 ft 341 kts 321°
2026-05-06 23:30 49.58502 20.67693 12779 ft 339 kts 321°
2026-05-06 23:30 49.60422 20.65619 12351 ft 336 kts 321°
2026-05-06 23:30 49.62334 20.63552 11944 ft 334 kts 320°
2026-05-06 23:30 49.64231 20.61500 11528 ft 332 kts 320°
2026-05-06 23:31 49.66094 20.59481 11123 ft 331 kts 320°
2026-05-06 23:31 49.67971 20.57445 10709 ft 329 kts 319°
2026-05-06 23:31 49.69841 20.55414 10341 ft 327 kts 319°
2026-05-06 23:31 49.71675 20.53426 10205 ft 318 kts 319°
2026-05-06 23:32 49.73460 20.51489 10053 ft 310 kts 319°
2026-05-06 23:32 49.75195 20.49603 9903 ft 300 kts 319°
2026-05-06 23:32 49.76887 20.47761 9652 ft 296 kts 319°
2026-05-06 23:32 49.78562 20.45930 9322 ft 294 kts 319°
2026-05-06 23:33 49.80226 20.44112 9005 ft 292 kts 319°
2026-05-06 23:33 49.81859 20.42326 8694 ft 291 kts 319°
2026-05-06 23:33 49.83505 20.40524 8374 ft 290 kts 319°
2026-05-06 23:33 49.85149 20.38724 8066 ft 288 kts 319°
2026-05-06 23:34 49.86785 20.36932 7752 ft 287 kts 318°
2026-05-06 23:34 49.88410 20.35150 7514 ft 285 kts 317°
2026-05-06 23:34 49.90021 20.33384 7242 ft 283 kts 317°
2026-05-06 23:34 49.91622 20.31626 6938 ft 281 kts 317°
2026-05-06 23:35 49.93216 20.29873 6639 ft 281 kts 317°
2026-05-06 23:35 49.94806 20.28123 6343 ft 279 kts 316°
2026-05-06 23:35 49.96365 20.26408 6048 ft 278 kts 316°
2026-05-06 23:35 49.97935 20.24678 5741 ft 276 kts 316°
2026-05-06 23:36 49.99495 20.22958 5471 ft 273 kts 316°
2026-05-06 23:36 50.01014 20.21287 5368 ft 262 kts 316°
2026-05-06 23:36 50.02478 20.19674 5268 ft 253 kts 315°
2026-05-06 23:36 50.03888 20.18117 5165 ft 244 kts 316°
2026-05-06 23:37 50.05249 20.16612 5069 ft 235 kts 316°
2026-05-06 23:37 50.06559 20.15162 4976 ft 230 kts 315°
2026-05-06 23:37 50.07853 20.13722 4882 ft 234 kts 316°
2026-05-06 23:37 50.09187 20.12238 4781 ft 235 kts 316°
2026-05-06 23:38 50.10500 20.10783 4563 ft 228 kts 314°
2026-05-06 23:38 50.11456 20.09006 4291 ft 204 kts 281°
2026-05-06 23:38 50.11655 20.06948 4095 ft 186 kts 262°
2026-05-06 23:38 50.11459 20.05035 3893 ft 175 kts 251°
2026-05-06 23:39 50.11200 20.03206 3662 ft 171 kts 252°
2026-05-06 23:39 50.10953 20.01425 3449 ft 166 kts 252°
2026-05-06 23:39 50.10713 19.99689 3250 ft 161 kts 252°
2026-05-06 23:39 50.10486 19.98034 3063 ft 157 kts 251°
2026-05-06 23:40 50.10257 19.96389 2892 ft 152 kts 252°
2026-05-06 23:40 50.10037 19.94799 2677 ft 148 kts 252°
2026-05-06 23:40 50.09820 19.93234 2468 ft 148 kts 252°
2026-05-06 23:40 50.09606 19.91691 2317 ft 147 kts 253°
2026-05-06 23:41 50.09394 19.90151 2115 ft 146 kts 253°
2026-05-06 23:41 50.09180 19.88610 1913 ft 148 kts 255°
2026-05-06 23:41 50.08956 19.87004 1721 ft 154 kts 256°
2026-05-06 23:41 50.08727 19.85362 1528 ft 159 kts 255°
2026-05-06 23:42 50.08492 19.83679 1290 ft 159 kts 257°
2026-05-06 23:42 50.08261 19.82012 1064 ft 157 kts 256°
2026-05-06 23:42 50.08042 19.80367 872 ft 153 kts 256°
2026-05-06 23:42 50.07815 19.78815 802 ft 131 kts 258°
2026-05-06 23:43 50.07675 19.77790 796 ft 68 kts 258°
2026-05-06 23:43 50.07592 19.77193 801 ft 47 kts 257°
2026-05-06 23:43 50.07523 19.76861 801 ft 21 kts 212°
2026-05-06 23:43 50.07419 19.76868 799 ft 0 kts 167°
2026-05-06 23:44 50.07373 19.76884 799 ft 14 kts 167°
2026-05-06 23:44 50.07319 19.76997 799 ft 15 kts 86°
2026-05-06 23:44 50.07336 19.77168 799 ft 16 kts 79°
2026-05-06 23:45 50.07364 19.77369 799 ft 24 kts 78°
2026-05-06 23:45 50.07405 19.77665 799 ft 32 kts 78°
2026-05-06 23:45 50.07458 19.78040 799 ft 38 kts 78°
2026-05-06 23:45 50.07514 19.78443 799 ft 37 kts 78°
2026-05-06 23:46 50.07567 19.78820 799 ft 35 kts 78°
2026-05-06 23:46 50.07616 19.79177 799 ft 33 kts 78°
2026-05-06 23:46 50.07662 19.79510 799 ft 28 kts 77°
2026-05-06 23:46 50.07693 19.79729 799 ft 20 kts 77°
2026-05-06 23:47 50.07665 19.79879 799 ft 15 kts 158°
2026-05-06 23:47 50.07568 19.79914 799 ft 14 kts 167°
2026-05-06 23:47 50.07515 19.80007 799 ft 11 kts 82°
2026-05-06 23:47 50.07520 19.80112 799 ft 8 kts 121°
2026-05-06 23:48 50.07490 19.80137 799 ft 3 kts 166°
2026-05-06 23:48 50.07482 19.80141 799 ft 0 kts 166°